Find Starlink 35044

NORAD ID: 65536 Int'l Des: 2025-200 Owner: SPXS Country: US Constellation: starlink operational
LEOCIRCULARRETROGRADESSO

当前视图

正在加载3D地球...

About Starlink 35044

Starlink 35044 (NORAD 65536) is a starlink constellation satellite (v2 mini) launched Sep 6, 2025 by SPXS of US. It operates in LEO, CIRCULAR, RETROGRADE, SSO orbit with a mass of 575.00 kg.

即将过境

Passes for default location (London). Set your location on the main map for personalized predictions.

高度历史

Loading altitude history...

两行轨道根数

1 65536U 25200S 26263.41285967 .00020898 00000-0 64804-3 0 9997
2 65536 97.2852 329.8835 0000577 39.5349 320.5936 15.33436178 58631
Epoch: Sep 20, 2026 • Age: 12 hours

当前状态

高度 471.7 km
远地点 / 近地点 N/A
速度 7.63 km/s
星下点 -15.62°S, 2.93°W
发射日期 Sep 6, 2025
运行时间 1 year
类型 internet

技术详情

分类 Payload
质量 575.00 kg
干质量 530.00 kg
长度 0.30 m
跨度 29.00 m
形状 ? Box + pan
制造商 SPXS
平台类型 Starlink V2MO
阶段状态 In Orbit
所有者/国家 SPXS/US

Most Searched